EHI
0 1 3 7 10 12 15 16 16 14 11 7 5 4 4 5 5 3 1 0 0 0 0 0 0 0 0 0 0 0 0 0 0 0 0 0 0 0 0 0 0 1 2
1 0 2 7 9 12 14 14 11 10 8 5 3 2 2 3 3 2 1 0 0 0 0 0 0 0 0 0 0 0 0 0 0 0 0 0 0 0 0 0 0 1 2
2 1 2 6 9 11 13 12 9 7 5 3 2 2 1 1 1 1 1 0 0 0 0 0 0 0 0 0 0 0 0 0 0 0 0 0 0 0 0 0 0 1 2
3 3 4 7 9 10 11 12 9 6 4 3 3 2 1 0 0 0 0 0 0 0 0 0 0 0 0 0 0 0 0 0 0 0 0 0 0 0 0 0 0 1 1
5 5 7 10 10 9 10 10 7 4 3 3 2 1 0 0 0 0 0 1 1 1 1 0 0 0 0 0 0 0 0 0 0 0 0 0 0 0 1 2 2 3 3
8 8 9 10 10 10 10 8 5 3 1 1 1 0 0 0 0 0 1 2 2 2 1 0 0 0 0 0 0 0 0 0 0 0 0 0 0 1 2 3 3 4 4
11 10 10 11 11 10 9 8 5 2 0 0 0 0 0 0 0 0 1 2 2 2 1 0 0 0 0 0 0 0 0 0 0 0 0 0 0 1 2 2 2 2 2
13 11 10 11 11 10 8 7 4 2 0 0 0 0 0 0 0 0 0 1 1 1 0 0 0 0 0 0 0 0 1 1 0 0 0 0 0 1 2 1 0 0 0
12 10 9 9 10 8 6 4 2 1 0 0 0 0 0 0 0 0 0 0 0 0 0 0 0 0 0 0 0 1 2 2 1 0 0 0 0 1 2 1 0 0 0
9 8 7 6 7 6 5 5 3 1 0 0 0 0 0 0 0 0 0 0 0 0 0 0 0 0 0 0 0 1 2 2 1 0 0 0 0 1 1 0 0 0 0
10 8 5 5 7 6 5 5 3 1 0 0 0 0 0 0 0 0 0 0 0 0 0 0 0 0 0 0 0 0 1 1 0 0 0 0 0 0 0 0 0 0 0
13 10 5 5 8 9 6 4 2 0 0 0 0 0 0 0 0 0 0 0 0 0 0 0 0 0 0 0 0 0 0 0 0 0 0 0 0 0 0 0 0 0 0
14 12 8 7 9 9 6 4 2 1 0 0 0 0 0 0 0 0 0 0 0 0 0 0 0 0 0 0 0 0 0 0 0 0 0 0 0 0 0 0 0 0 0
15 16 13 11 11 8 6 5 5 2 0 0 0 0 0 0 0 0 0 0 0 0 0 0 0 0 0 0 0 0 0 0 0 0 0 1 1 1 1 0 0 0 0
18 18 16 15 13 10 8 7 6 2 0 0 0 0 0 0 0 0 0 0 0 0 0 0 0 0 0 0 0 0 0 0 0 0 0 1 2 3 3 1 0 0 0
19 16 16 16 14 12 10 7 5 2 0 0 0 0 0 0 0 0 0 0 0 0 0 0 0 0 0 0 0 0 0 0 0 0 0 1 2 4 4 2 1 1 0
16 14 15 16 14 12 8 5 3 1 0 0 0 0 0 0 0 0 0 0 0 0 0 0 0 0 0 0 0 0 0 0 0 0 0 0 1 1 2 2 2 2 2
14 15 15 16 13 10 6 3 2 1 0 0 0 0 0 0 0 0 0 0 0 0 0 0 0 0 0 0 0 0 0 0 0 0 0 0 0 0 0 1 2 3 2
17 17 17 17 14 10 6 4 3 2 1 1 0 0 0 0 0 0 0 0 0 0 0 0 0 0 0 0 0 0 0 0 0 0 0 0 0 0 0 0 0 1 1
24 24 23 20 17 12 8 7 5 4 3 1 0 0 0 0 0 0 0 0 0 0 0 0 0 0 0 0 0 0 0 0 0 0 0 0 0 0 0 0 0 0 0
31 31 29 25 20 17 15 12 9 6 3 1 0 1 2 1 1 0 0 0 0 0 0 0 0 0 0 0 0 0 0 0 0 0 0 0 0 0 0 0 0 0 0
40 36 31 26 23 22 21 16 11 7 4 1 1 2 3 3 2 1 0 0 0 0 0 0 0 0 0 0 0 0 0 0 0 0 0 0 0 0 0 0 0 0 0
43 37 32 27 25 24 23 19 15 10 7 4 4 5 5 4 4 2 1 0 0 0 0 0 0 0 0 0 0 0 0 0 0 0 0 0 0 0 0 0 0 0 0
41 38 32 27 24 23 24 24 20 15 11 8 7 8 7 6 5 4 3 1 0 0 0 0 0 0 0 0 0 0 0 0 0 0 0 0 0 0 0 0 0 0 0
39 37 32 26 23 24 26 27 23 18 13 9 8 9 9 8 6 5 4 2 0 0 0 0 0 0 0 0 0 0 0 0 0 0 0 0 0 0 0 0 0 0 0
38 36 33 28 24 25 26 26 22 18 12 8 7 9 10 8 6 4 4 2 1 0 0 0 0 0 0 0 0 0 0 0 0 0 0 0 0 0 0 0 0 0 0
Wind_Speed
5 6 12 13 14 15 16 16 16 16 16 16 16 16 16 15 15 14 14 14 14 14 14 14 14 14 14 14 14 15 15 15 15 15 15 15 15 15 15 16 15 12 16
8 8 13 14 14 15 15 16 15 15 15 15 15 15 15 14 14 14 14 13 13 14 14 14 14 14 15 15 15 15 15 14 14 15 15 14 15 15 15 15 14 10 15
10 8 11 13 14 14 14 15 15 15 15 15 15 14 14 14 14 14 13 13 13 14 14 14 14 14 14 14 14 14 14 14 14 14 13 9 10 13 14 14 14 14 14
10 7 9 14 14 14 14 14 14 14 14 14 14 14 13 13 13 13 13 13 13 13 13 14 14 14 14 14 14 13 14 14 14 13 8 7 8 12 13 14 14 14 14
9 6 9 15 14 14 13 13 13 13 13 13 13 13 13 12 12 12 12 13 13 13 13 14 14 14 13 13 13 13 13 13 13 11 7 6 6 11 13 13 13 13 13
8 6 9 15 14 13 13 12 12 12 12 12 12 12 12 12 12 12 12 12 12 13 13 13 13 13 13 13 12 12 12 13 11 8 7 6 6 10 12 13 13 13 12
8 6 8 14 14 13 13 12 12 12 11 11 11 11 11 11 11 11 11 12 12 12 12 13 12 12 12 11 11 11 12 12 8 7 6 6 6 10 12 12 12 12 12
9 6 7 14 14 13 12 12 11 11 11 11 11 10 10 10 11 11 11 11 11 11 12 12 11 11 10 10 10 11 12 11 8 7 6 5 7 9 11 11 11 11 11
7 6 5 7 9 12 12 11 11 11 11 10 10 10 10 10 10 10 10 10 11 11 10 10 10 10 9 9 9 10 11 11 7 5 6 4 8 10 11 11 10 10 10
6 5 5 5 5 5 6 11 11 11 10 10 10 10 9 9 9 9 8 9 10 10 9 9 9 9 8 8 9 9 10 9 6 5 4 5 8 10 10 10 10 10 10
7 4 4 5 4 5 4 7 8 9 9 8 7 9 7 4 4 5 6 8 9 8 8 8 8 8 7 7 8 8 8 4 5 4 3 6 9 9 10 10 10 10 9
10 7 5 5 5 5 5 4 3 3 4 3 3 4 3 3 2 3 4 6 7 7 7 7 7 7 5 3 4 6 3 5 4 3 4 8 8 9 9 9 9 9 9
10 9 7 6 5 5 3 3 2 2 2 3 4 4 3 3 2 2 1 1 2 3 3 4 4 3 3 2 2 2 3 3 2 3 4 8 8 9 9 9 9 8 8
9 9 8 7 6 5 3 3 3 2 2 2 3 4 3 2 2 1 1 1 1 1 2 2 2 2 2 2 3 3 4 3 2 2 3 8 8 8 9 8 8 8 8
10 9 9 8 7 6 4 3 4 3 3 3 3 3 3 2 2 2 1 1 1 1 2 2 2 2 1 2 2 3 4 4 4 3 2 7 8 8 9 9 9 9 8
10 10 8 8 7 6 5 3 3 3 3 3 3 4 4 3 3 2 2 2 1 1 1 2 2 1 1 1 2 3 4 4 4 4 3 4 8 8 8 9 9 9 9
10 9 8 8 7 7 6 5 4 3 3 3 3 4 4 4 4 3 2 2 2 2 2 1 1 1 1 1 1 2 3 4 4 5 4 3 4 7 8 9 9 9 10
9 9 9 9 9 7 6 5 3 3 4 4 3 4 5 5 4 3 3 3 2 2 2 2 1 1 1 1 1 2 2 3 4 5 5 4 4 4 7 10 9 9 10
11 11 10 9 9 8 6 5 4 3 4 3 3 4 5 5 5 4 4 3 3 2 2 2 2 2 2 2 2 2 2 3 4 5 5 6 6 5 5 7 10 10 12
8 9 10 9 8 7 5 3 3 3 3 3 4 5 6 6 7 5 4 4 4 3 2 2 2 2 2 2 2 1 1 3 3 4 6 5 6 7 7 7 6 7 12
8 9 9 9 8 7 5 5 4 4 3 3 4 6 7 6 6 6 4 4 4 4 4 4 2 2 2 2 1 1 1 2 3 4 5 5 6 7 7 8 6 6 6
10 10 9 9 8 7 6 5 3 3 3 3 3 4 5 6 6 6 6 5 5 4 4 4 3 2 2 2 3 1 1 2 3 4 4 5 7 5 7 9 8 8 7
10 10 10 9 8 7 6 4 2 2 1 2 3 3 4 6 6 6 7 5 5 5 5 5 5 5 3 2 2 3 3 3 2 2 4 5 5 5 6 6 8 9 9
9 8 8 8 7 7 7 6 6 5 5 4 4 4 4 5 5 6 6 6 5 5 5 5 5 4 4 3 2 2 2 3 2 2 2 3 4 6 7 6 7 8 8
7 7 7 6 6 6 6 7 6 5 3 2 2 3 4 4 5 6 6 6 6 5 5 5 4 5 4 4 4 3 2 1 2 2 3 2 2 4 5 6 5 6 7
5 6 6 7 6 6 6 6 6 6 4 3 3 3 3 3 4 6 6 6 6 5 5 5 5 6 5 5 4 3 3 3 3 4 4 3 3 3 3 4 4 5 5
Wind_Direction
148 149 138 129 121 116 113 111 110 111 111 112 113 113 114 114 113 111 110 108 107 107 107 106 106 108 109 108 107 106 107 109 109 109 110 109 108 108 108 107 105 105 107
143 147 141 133 126 120 117 115 114 114 114 114 114 115 115 114 114 112 111 110 109 108 107 106 107 108 108 107 108 109 109 110 111 110 109 108 110 111 111 109 109 112 112
137 141 140 136 129 124 121 119 119 118 117 116 116 116 116 116 115 114 112 110 109 109 109 108 108 108 107 108 109 110 110 110 109 107 102 99 108 111 112 113 113 113 113
136 135 140 138 134 129 125 123 122 121 119 118 118 118 118 118 116 115 113 111 110 111 112 112 111 111 111 111 112 112 110 109 108 105 95 100 108 114 114 114 114 113 113
132 133 148 142 138 134 131 128 125 124 123 122 121 120 120 120 118 117 115 114 114 113 113 113 112 112 113 113 114 114 112 110 107 99 91 91 101 117 117 116 116 114 113
132 138 152 145 143 139 136 132 130 128 127 126 125 123 123 122 121 120 119 116 116 115 114 113 113 113 114 115 114 116 115 110 102 97 95 98 107 120 121 119 119 119 117
137 144 152 149 147 144 141 138 135 132 130 129 127 127 126 125 125 124 122 119 118 117 116 114 114 113 114 117 117 119 118 115 105 102 100 102 112 120 122 122 121 120 119
142 143 150 153 151 149 146 143 141 138 136 134 131 129 127 126 126 125 124 123 121 119 118 117 115 114 114 115 118 122 124 122 117 112 107 110 118 121 122 122 123 123 123
139 140 145 150 153 154 152 149 146 143 140 138 136 133 131 131 128 126 125 125 124 123 122 121 118 117 116 117 121 125 131 128 120 121 123 118 125 127 126 127 127 127 126
137 140 138 136 138 144 151 156 153 150 146 144 142 139 138 136 132 128 124 127 127 126 125 124 122 121 119 120 125 128 134 126 124 125 123 134 136 135 133 131 131 131 129
157 151 144 140 137 136 146 163 157 156 154 149 146 144 129 100 101 117 133 136 133 131 129 126 123 119 114 115 122 127 124 121 129 130 133 147 146 144 141 138 136 135 134
174 170 158 153 147 148 162 147 136 136 134 122 111 113 102 98 104 116 142 146 142 137 131 125 118 110 97 92 108 113 112 129 134 142 153 158 156 152 147 146 144 143 143
175 176 170 165 158 159 151 140 129 117 116 118 123 120 115 105 96 88 79 105 109 117 99 101 96 93 100 107 106 118 133 140 147 158 167 169 168 163 159 156 156 154 153
176 182 174 171 167 167 159 150 142 138 137 141 144 142 132 129 126 122 115 102 90 95 106 97 102 111 117 129 143 147 152 154 163 166 178 181 181 178 172 169 168 167 165
183 184 181 177 175 171 164 166 161 161 161 160 156 160 156 156 164 164 163 156 149 128 128 123 122 128 140 151 169 168 174 176 177 182 187 192 191 188 185 182 180 180 178
187 187 181 182 178 172 174 172 167 171 168 168 175 180 175 173 175 179 187 191 192 175 163 153 154 152 162 167 185 185 191 186 187 191 197 205 204 200 200 195 191 190 189
186 183 182 184 177 178 179 181 177 177 175 183 189 188 186 184 184 185 193 206 211 191 174 154 145 135 170 180 195 199 193 191 195 201 201 206 212 214 213 209 205 203 202
177 180 185 191 183 185 183 179 176 176 184 192 190 192 196 191 186 183 196 212 206 188 181 177 169 162 188 189 198 211 200 195 206 208 208 208 211 217 222 221 218 216 214
180 178 183 189 184 186 183 177 183 182 193 196 190 192 196 193 188 186 200 207 188 187 196 206 181 175 191 204 211 217 218 213 216 215 217 217 216 218 222 230 228 226 226
177 177 183 189 186 176 170 167 179 186 200 195 196 197 193 194 190 188 202 199 179 183 195 196 186 183 186 193 220 227 245 236 225 223 225 224 222 223 224 229 232 234 234
177 179 182 186 185 172 171 177 183 201 198 197 204 201 196 196 190 189 205 194 184 192 199 190 179 188 197 153 120 357 314 258 241 235 231 230 231 228 226 227 228 231 236
184 185 181 185 184 184 186 179 177 176 192 199 203 200 199 196 192 196 196 195 193 193 194 189 175 172 190 165 154 133 315 313 268 239 229 231 237 232 231 230 227 228 231
189 190 188 186 184 186 177 154 138 125 126 169 201 201 204 200 199 198 196 195 193 194 198 194 183 181 190 193 183 160 172 232 282 282 239 232 231 229 234 235 231 230 230
194 186 182 181 179 179 173 174 177 186 197 201 201 199 195 198 200 202 198 197 197 197 199 203 195 192 181 196 204 207 194 172 187 288 294 250 237 234 234 236 236 233 231
180 172 173 169 175 178 182 183 187 197 200 186 187 193 198 200 203 204 201 200 202 204 205 203 193 195 195 195 191 183 186 183 185 195 267 291 275 249 238 235 236 236 232
164 165 163 165 176 179 182 180 186 192 190 193 206 206 208 205 209 209 207 207 206 204 204 204 200 198 202 202 199 190 183 183 195 194 225 252 263 268 254 244 236 237 235